Regional Weather Roundup
Issued by NWS Sterling, VA

Home | Current Version | Previous Version | Text Only | Print | Product List | Glossary Off
Versions: 1 2 3 4 5 6 7 8 9 10 11 12 13 14 15 16 17 18 19 20 21 22 23 24 25 26 27 28 29 30 31 32 33 34 35 36 37 38 39 40 41 42 43 44 45 46 47 48 49 50

000
ASUS41 KLWX 272210
RWRLWX

REGIONAL WEATHER ROUNDUP
NATIONAL WEATHER SERVICE BALTIMORE MD/WASHINGTON DC
500 PM EST THU NOV 27 2014

Note: "FAIR" indicates few or no clouds below 12,000 feet
with no significant weather and/or obstructions to visibility.
 TC=TEMPERATURE CELSIUS

 * =Non NWS site. Station does not report precipitation (e.g. rain,
    snow, etc.), thunder, or fog.

DCZ001-MDZ009-015-VAZ040>042-051-053>054-272300-
WASHINGTON METRO

CITY           SKY/WX    TMP DP  RH WIND       PRES   REMARKS
WASHINGTON NAT MOCLDY    44  26  49 NW12G23   30.10R
DULLES         MOCLDY    37  29  72 W6G17     30.09S
ANDREWS AFB    CLOUDY    41  29  61 NW10      30.07R
FT BELVOIR     MIX PCPN  43  28  56 NW21      30.10R
QUANTICO       MOCLDY    42  29  59 N13G24    30.11R
COLLEGE PARK*  MOCLDY    41  30  65 NW7       30.08R
LEESBURG*      PTCLDY    37  32  81 W7        30.10R
GAITHERSBURG*  PTCLDY    36  27  69 NW5       30.11R

$$

MDZ006>007-011-014-272300-
BALTIMORE METRO

CITY           SKY/WX    TMP DP  RH WIND       PRES   REMARKS
BWI AIRPORT    MOCLDY    40  29  64 NW3       30.07R
MD SCIENCE CTR   N/A     40  28  62 MISG      30.07R
MARTIN STATE   MOCLDY    39  30  70 N5        30.09R
ANNAPOLIS      CLOUDY    43  29  57 NW8       30.08R
FORT MEADE*    MOCLDY    37  30  75 NW5       30.10R

$$

MDZ012-015-019>023-272300-
MARYLAND EASTERN SHORE

CITY           SKY/WX    TMP DP  RH WIND       PRES   REMARKS
OCEAN CITY     PTCLDY    39  32  76 NW5       30.05R
SALISBURY      MOCLDY    42  32  67 NW6       30.05R
BAY BRIDGE AP*   N/A     41  28  60 NW9       30.08R
CAMBRIDGE*     CLEAR     41  34  75 CALM      30.06R
EASTON*        MOCLDY    41  32  70 N3        30.10R

$$

MDZ017>025-272300-
SOUTHERN MARYLAND

CITY           SKY/WX    TMP DP  RH WIND       PRES   REMARKS
PATUXENT RIVER CLEAR     40  33  76 NW6       30.07R
ST INIGOES     CLEAR     38  33  82 CALM      30.07R
LEONARDTOWN*   CLEAR     37  32  81 CALM      30.08R

$$

MDZ003>005-272300-
NORTH CENTRAL MARYLAND

CITY           SKY/WX    TMP DP  RH WIND       PRES   REMARKS
FREDERICK*     MOCLDY    39  28  65 NW5       30.11R
HAGERSTOWN APT MOCLDY    36  28  73 W5        30.07R
WESTMINSTER*   MOCLDY    36  30  80 CALM      30.05R

$$

MDZ501>502-272300-
WESTERN MARYLAND

CITY           SKY/WX    TMP DP  RH WIND       PRES   REMARKS
OAKLAND*       CLOUDY    27 N/A N/A W8        30.02R FOG     WCI  18
CUMBERLAND*    MOCLDY    36  32  87 W6        30.14R

$$

VAZ025>031-272300-
SHENANDOAH VALLEY

CITY           SKY/WX    TMP DP  RH WIND       PRES   REMARKS
WINCHESTER*    CLOUDY    37  27  65 W7        30.09R
FRONT ROYAL*   MOCLDY    34  32  93 W3        30.09R
LURAY*         CLOUDY    37  32  81 W7        30.10R
NEW MARKET*    MOCLDY    37  25  61 CALM      30.11R
STAUNTON*      MOCLDY    36  24  61 NW12      30.12R WCI  28
WAYNESBORO*    CLOUDY    35  28  74 CALM      30.10R

$$

WVZ021-048>050-054>055-272300-
EASTERN WEST VIRGINIA PANHANDLE

CITY           SKY/WX    TMP DP  RH WIND       PRES   REMARKS
MARTINSBURG    MOCLDY    39  25  57 W8        30.09R
PETERSBURG*    CLOUDY    37  25  63 W7        30.13R

$$

VAZ036>039-050-272300-
CENTRAL FOOTHILLS

CITY           SKY/WX    TMP DP  RH WIND       PRES   REMARKS
CHARLOTTESVILL CLOUDY    41  25  53 NW8       30.10R
CULPEPER*      CLOUDY    41  32  70 N3        30.11R
ORANGE*        CLOUDY    43  28  56 W3        30.10R
GORDONSVILLE*  MOCLDY    41  26  55 NW9       30.09R
WARRENTON*     MOCLDY    40  36  85 NW10      30.10R

$$

VAZ055>057-272300-
NORTH AND CENTRAL PIEDMONT

CITY           SKY/WX    TMP DP  RH WIND       PRES   REMARKS
FREDERICKSBRG* MOCLDY    43  31  62 NW7       30.09R
STAFFORD*      CLOUDY    40  29  65 NW7       30.13R

$$

NCZ024-NYZ072-PAZ021-071-VAZ022-071-272300-
OTHER REGIONAL OBSERVATIONS

CITY           SKY/WX    TMP DP  RH WIND       PRES   REMARKS
NEW YORK CITY  CLOUDY    37  29  72 VRB7      30.03R
PHILADELPHIA   MOCLDY    39  27  62 NW10      30.07R
PITTSBURGH     CLOUDY    30  26  85 W12       30.14R WCI  20
ROANOKE        MOCLDY    37  23  56 NW18      30.17R WCI  27
RICHMOND       MOCLDY    42  37  82 CALM      30.09R
RALEIGH        PTCLDY    44  34  67 NW5       30.12R

$$

ANZ530>537-272300-
MARINE OBSERVATIONS

STATION/POSITION TIME  TEMP    WIND        PRES
                       AIR SEA DIR/SP/G
                 (UTC) (F)     (DEG/KT/KT) (MB)
THOMAS PT LIGHT  2200   43 47  330/ 11/ 12 1019.5R
BALT KEY BRIDGE  2200   41     310/ 11/ 12 1018.1R
COVE POINT       2200   42     320/  7/ 10 1017.9R
LEWISETTA        2200   40 48  280/  4/  5 1018.1R
SOLOMONS ISLAND  2200      49                N/A
PINEY POINT      2200          320/ 10/ 12   N/A

$$



USA.gov is the U.S. government's official web portal to all federal, state and local government web resources and services.